EW5206 Weather Reports


Display with metric or nautical units.
time (UTC)temp
F
wind
direction
speed
MPH
gust
MPH
rain 1hr
in
rain 24hr
in
rain mn
in
humidity
%
barometer
mb
20260508013029 52 0.0 0.0 0.00 0.00 0.00 68 1011.9
20260508011528 52 0.0 0.0 0.00 0.00 0.00 69 1011.8
20260508010033 53 0.0 0.0 0.00 0.00 0.00 66 1011.5
20260508004523 53 0.0 0.0 0.00 0.00 0.00 65 1011.5
20260508003023 54 0.0 0.0 0.00 0.00 0.00 64 1011.4
20260508001521 54 0.0 0.0 0.00 0.00 0.00 64 1011.3
20260508000020 55 0.0 0.0 0.00 0.00 0.00 61 1011.0
20260507234519 55 0.0 0.0 0.00 0.00 0.00 60 1011.0
20260507233034 56 0.0 0.0 0.00 0.00 0.00 59 1010.7
20260507231527 56 0.0 0.0 0.00 0.00 0.00 61 1010.6
20260507230018 57 0.0 0.0 0.00 0.00 0.00 59 1010.3
20260507224517 57 0.0 0.0 0.00 0.00 0.00 59 1010.3
20260507223017 58 0.0 0.0 0.00 0.00 0.00 62 1010.2
20260507221516 58 0.0 0.0 0.00 0.00 0.00 61 1010.0
20260507220019 58 0.0 0.0 0.00 0.00 0.00 60 1010.0
20260507214515 59 0.0 0.0 0.00 0.00 0.00 63 1009.8
20260507213015 59 0.0 0.0 0.00 0.00 0.00 62 1009.5
20260507211519 60 0.0 0.0 0.00 0.00 0.00 61 1009.3
20260507210012 60 0.0 0.0 0.00 0.00 0.00 63 1009.2
20260507204511 60 0.0 0.0 0.00 0.00 0.00 64 1009.2
20260507203011 60 0.0 0.0 0.00 0.00 0.00 65 1009.0
20260507201510 59 0.0 0.0 0.00 0.00 0.00 66 1009.0
20260507200007 59 0.0 0.0 0.00 0.00 0.00 69 1009.1
20260507194506 59 0.0 0.0 0.00 0.00 0.00 72 1009.3
20260507193004 58 0.0 0.0 0.00 0.00 0.00 76 1009.6
20260507191505 57 0.0 0.0 0.00 0.00 0.00 76 1010.1
20260507190005 57 0.0 0.0 0.00 0.00 0.00 78 1010.1
20260507184503 56 0.0 0.0 0.00 0.00 0.00 78 1010.2
20260507183009 56 0.0 0.0 0.00 0.00 0.00 80 1010.3
20260507181502 56 0.0 0.0 0.00 0.00 0.00 79 1010.4
20260507180002 56 0.0 0.0 0.00 0.00 0.00 81 1010.2
20260507174501 56 0.0 0.0 0.00 0.00 0.00 79 1010.4
20260507173104 56 0.0 0.0 0.00 0.00 0.00 80 1010.4
20260507171606 56 0.0 0.0 0.00 0.00 0.00 81 1010.4
20260507170104 56 0.0 0.0 0.00 0.00 0.00 81 1010.5
20260507164605 56 0.0 0.0 0.00 0.00 0.00 81 1010.4
20260507163059 55 0.0 0.0 0.00 0.00 0.00 83 1010.6
20260507161558 55 0.0 0.0 0.00 0.00 0.00 81 1010.7
20260507160058 55 0.0 0.0 0.00 0.00 0.00 80 1010.6
20260507154559 55 0.0 0.0 0.00 0.00 0.00 82 1010.7
20260507153101 55 0.0 0.0 0.00 0.00 0.00 85 1010.7
20260507151555 55 0.0 0.0 0.00 0.00 0.00 84 1010.8
20260507150056 55 0.0 0.0 0.00 0.00 0.00 83 1010.9
20260507144555 55 0.0 0.0 0.00 0.00 0.00 85 1010.8
20260507143059 55 0.0 0.0 0.00 0.00 0.00 87 1010.7
20260507141554 54 0.0 0.0 0.00 0.00 0.00 89 1010.3
20260507140050 54 0.0 0.0 0.00 0.00 0.00 90 1010.6
20260507134550 54 0.0 0.0 0.00 0.00 0.00 93 1010.3
20260507133102 54 0.0 0.0 0.00 0.00 0.00 93 1010.8
20260507131553 54 0.0 0.0 0.00 0.00 0.00 93 1010.8
20260507130104 54 0.0 0.0 0.00 0.00 0.00 94 1011.0
20260507124546 54 0.0 0.0 0.00 0.00 0.00 95 1010.7
20260507123046 54 0.0 0.0 0.00 0.00 0.00 95 1010.8
20260507121556 54 0.0 0.0 0.00 0.00 0.00 95 1010.7
20260507120053 54 0.0 0.0 0.00 0.00 0.00 95 1010.5
20260507114619 54 0.0 0.0 0.00 0.00 0.00 95 1010.6
20260507113041 54 0.0 0.0 0.00 0.00 0.00 96 1010.4
20260507111540 54 0.0 0.0 0.00 0.00 0.00 96 1010.4
20260507110039 54 0.0 0.0 0.00 0.00 0.00 96 1009.9
20260507104538 54 0.0 0.0 0.00 0.00 0.00 96 1010.0
20260507103037 54 0.0 0.0 0.00 0.00 0.00 96 1010.0
20260507101539 54 0.0 0.0 0.00 0.00 0.00 96 1009.9
20260507100036 54 0.0 0.0 0.00 0.00 0.00 96 1009.7
20260507094534 55 0.0 0.0 0.00 0.00 0.00 96 1010.0
20260507093033 55 0.0 0.0 0.00 0.00 0.00 95 1010.1
20260507091541 55 0.0 0.0 0.00 0.00 0.00 95 1009.8
20260507090037 55 0.0 0.0 0.00 0.00 0.00 95 1009.8
20260507084531 55 0.0 0.0 0.00 0.00 0.00 95 1009.1
20260507083032 55 0.0 0.0 0.00 0.00 0.00 95 1009.6
20260507081527 55 0.0 0.0 0.00 0.00 0.00 95 1010.0
20260507080026 56 0.0 0.0 0.00 0.00 0.00 95 1009.9
20260507074525 56 0.0 0.0 0.00 0.00 0.00 95 1009.4
20260507073024 56 0.0 0.0 0.00 0.00 0.00 95 1009.4
20260507071522 56 0.0 0.0 0.00 0.00 0.00 95 1009.7
20260507070028 57 0.0 0.0 0.00 0.00 0.00 94 1009.7
20260507064518 57 0.0 0.0 0.00 0.00 0.00 95 1009.5
20260507063018 57 0.0 0.0 0.00 0.00 0.00 95 1009.8
20260507061515 58 0.0 0.0 0.00 0.00 0.00 94 1009.9
20260507060017 58 0.0 0.0 0.00 0.00 0.00 95 1009.7
20260507054518 59 0.0 0.0 0.00 0.00 0.00 95 1009.7
20260507053011 59 0.0 0.0 0.00 0.00 0.00 95 1010.1
20260507051508 59 0.0 0.0 0.00 0.00 0.00 95 1010.3
20260507050006 60 0.0 0.0 0.00 0.00 0.00 95 1010.4
20260507044503 60 0.0 0.0 0.00 0.00 0.00 95 1010.0
20260507043004 60 0.0 0.0 0.00 0.00 0.00 95 1009.6
20260507041600 60 0.0 0.0 0.00 0.00 0.00 95 1009.8
20260507040101 60 0.0 0.0 0.00 0.00 0.00 95 1010.0
20260507034558 60 0.0 0.0 0.00 0.00 0.00 95 1010.0
20260507033101 61 0.0 0.0 0.00 0.00 0.00 94 1010.2
20260507031556 61 0.0 0.0 0.00 0.00 0.00 94 1010.9
20260507030056 61 0.0 0.0 0.00 0.00 0.00 94 1011.3
20260507024605 61 0.0 0.0 0.00 0.00 0.00 93 1011.4
20260507023053 61 0.0 0.0 0.00 0.00 0.00 93 1011.0
20260507021553 62 0.0 0.0 0.00 0.00 0.00 92 1010.4
20260507020108 62 0.0 0.0 0.00 0.00 0.00 91 1010.8
20260507014555 63 0.0 0.0 0.00 0.00 0.00 89 1010.5